Rockport, TX

3:25 AM CST on November 21, 2019 (GMT -0600)
Aransas County

Weather History for KRKP - October, 2019

Change the Weather History Date:

Tuesday, October 15, 2019

  Actual Average Record
Temperature  
Mean Temperature 85 °F -  
Max Temperature 91 °F 82 °F 91 °F (1985)
Min Temperature 79 °F 65 °F 48 °F (1974)
Cooling Degree Days 20    
Growing Degree Days 35 (Base 50)    
Moisture  
Dew Point 75 °F    
Average Humidity 74    
Maximum Humidity 84    
Minimum Humidity 55    
Precipitation  
Precipitation 0.00 in - - ()
Sea Level Pressure  
Sea Level Pressure 29.90 in    
Wind  
Wind Speed 8 mph (SSE)    
Max Wind Speed 14 mph    
Max Gust Speed 20 mph    
Visibility 9 miles    
Events      
Averages and records for this station are not official NWS values.
T = Trace of Precipitation, MM = Missing Value Source: NWS Daily Summary

Daily Weather History Graph

Daily Weather History Graph

Search for Another Location

Airport or City:

Astronomy

Oct. 15, 2019 Rise Set
Actual Time 7:28 AM CDT 6:58 PM CDT
Civil Twilight 7:04 AM CDT 7:22 PM CDT
Nautical Twilight 6:37 AM CDT 7:49 PM CDT
Astronomical Twilight 6:10 AM CDT 8:17 PM CDT
Moon 8:26 PM CDT (10/15) 8:56 AM CDT (10/15)
Length of Visible Light 12h 17m
Length of Day
11h 30m
Full, 97% of the Moon is Illuminated
Oct 15
Full
Oct 21
Last Quarter
Oct 27
New
Nov 4
First Quarter
Nov 12
Full

Hourly Weather History & Observations

Time (CDT) Temp. Heat Index Dew Point Humidity Pressure Visibility Wind Dir Wind Speed Gust Speed Precip Events Conditions
12:53 AM 82.0 °F 89.4 °F 75.9 °F 82% 29.93 in 9.0 mi South 8.1 mph - N/A   Clear
1:53 AM 82.0 °F 89.4 °F 75.9 °F 82% 29.93 in 9.0 mi South 6.9 mph - N/A   Clear
2:24 AM 82.0 °F 89.4 °F 75.9 °F 82% 29.92 in 8.0 mi South 6.9 mph - N/A   Mostly Cloudy
2:49 AM 82.4 °F 89.5 °F 75.2 °F 79% 29.92 in 8.0 mi South 6.9 mph - N/A   Scattered Clouds
2:53 AM 82.0 °F 89.4 °F 75.9 °F 82% 29.93 in 8.0 mi South 6.9 mph - N/A   Scattered Clouds
3:53 AM 82.0 °F 89.4 °F 75.9 °F 82% 29.92 in 8.0 mi South 8.1 mph - N/A   Partly Cloudy
4:31 AM 82.0 °F 89.4 °F 75.9 °F 82% 29.90 in 8.0 mi South 5.8 mph - N/A   Mostly Cloudy
4:51 AM 82.4 °F 89.5 °F 75.2 °F 79% 29.91 in 8.0 mi South 6.9 mph - 0.00 in   Scattered Clouds
4:53 AM 82.0 °F 89.4 °F 75.9 °F 82% 29.91 in 8.0 mi South 5.8 mph - 0.00 in   Scattered Clouds
5:53 AM 81.0 °F 86.7 °F 75.0 °F 82% 29.91 in 9.0 mi South 5.8 mph - N/A   Clear
6:53 AM 81.0 °F 86.7 °F 75.0 °F 82% 29.92 in 8.0 mi South 4.6 mph - N/A   Clear
7:53 AM 79.0 °F - 73.9 °F 84% 29.91 in 6.0 mi Calm Calm - N/A   Haze
8:53 AM 84.0 °F 92.6 °F 75.9 °F 76% 29.92 in 8.0 mi South 5.8 mph - N/A   Clear
9:53 AM 84.9 °F 93.3 °F 75.0 °F 72% 29.94 in 8.0 mi South 9.2 mph - N/A   Scattered Clouds
10:28 AM 88.0 °F 97.5 °F 75.0 °F 65% 29.93 in 9.0 mi South 6.9 mph - N/A   Mostly Cloudy
10:53 AM 88.0 °F 96.5 °F 73.9 °F 63% 29.94 in 9.0 mi South 10.4 mph - N/A   Overcast
11:18 AM 89.1 °F 99.1 °F 75.0 °F 63% 29.92 in 9.0 mi South 10.4 mph - N/A   Mostly Cloudy
11:53 AM 90.0 °F 100.2 °F 75.0 °F 61% 29.93 in 9.0 mi SSE 10.4 mph - N/A   Partly Cloudy
12:53 PM 90.0 °F 99.0 °F 73.9 °F 59% 29.91 in 10.0 mi SSE 11.5 mph - N/A   Clear
1:53 PM 91.0 °F 99.3 °F 73.0 °F 55% 29.89 in 10.0 mi SSE 13.8 mph 19.6 mph N/A   Partly Cloudy
2:53 PM 90.0 °F 99.0 °F 73.9 °F 59% 29.88 in 9.0 mi SE 10.4 mph - N/A   Partly Cloudy
3:53 PM 90.0 °F 99.0 °F 73.9 °F 59% 29.86 in 9.0 mi SE 12.7 mph - N/A   Clear
4:53 PM 89.1 °F 99.1 °F 75.0 °F 63% 29.84 in 9.0 mi SSE 11.5 mph - N/A   Clear
5:53 PM 86.0 °F 95.1 °F 75.0 °F 70% 29.83 in 9.0 mi SE 13.8 mph - N/A   Clear
6:53 PM 84.0 °F 91.9 °F 75.0 °F 74% 29.83 in 8.0 mi SSE 12.7 mph - N/A   Clear
7:53 PM 82.9 °F 90.2 °F 75.0 °F 77% 29.85 in 9.0 mi SE 9.2 mph - N/A   Clear
8:53 PM 82.0 °F 89.4 °F 75.9 °F 82% 29.85 in 9.0 mi SSE 8.1 mph - N/A   Clear
9:53 PM 82.0 °F 89.4 °F 75.9 °F 82% 29.88 in 9.0 mi SSE 6.9 mph - N/A   Clear
10:53 PM 82.0 °F 89.4 °F 75.9 °F 82% 29.89 in 9.0 mi South 5.8 mph - N/A   Clear
11:53 PM 82.0 °F 89.4 °F 75.9 °F 82% 29.90 in 8.0 mi South 5.8 mph - N/A   Clear